Location: Observatoires du Mont Megantic
(45.4500°N, 71.1500°W)
Time: 17:32:34
(UTC-04:00)

Envisat - Visible Passes

Search period start: 21 October 2017 00:00
Search period end: 31 October 2017 00:00
Orbit: 764 x 766 km, 98.2° (Epoch: 21 October)

Date Brightness Start Highest point End Pass type
(mag) Time Alt. Az. Time Alt. Az. Time Alt. Az.
21 Oct 4.0 19:21:35 25° ENE 19:21:35 25° ENE 19:25:37 10° N visible
21 Oct 4.3 21:01:48 36° NW 21:01:48 36° NW 21:05:12 10° NNW visible
22 Oct 4.7 18:44:36 12° ENE 18:45:18 13° NE 18:47:29 10° NNE visible
22 Oct 3.5 20:24:49 51° N 20:24:49 51° N 20:28:37 10° NNW visible
22 Oct 6.0 22:05:02 11° WNW 22:05:02 11° WNW 22:05:29 10° WNW visible
23 Oct 3.7 19:47:50 37° NE 19:47:50 37° NE 19:51:39 10° N visible
23 Oct 5.2 21:28:03 21° WNW 21:28:03 21° WNW 21:30:23 10° NW visible
24 Oct 4.3 19:10:50 20° ENE 19:10:50 20° ENE 19:14:14 10° NNE visible
24 Oct 4.3 20:51:04 36° NW 20:51:04 36° NW 20:54:11 10° NNW visible
25 Oct 4.9 18:33:51 10° ENE 18:34:23 10° NE 18:35:10 10° NE visible
25 Oct 3.7 20:14:04 42° N 20:14:04 42° N 20:17:29 10° N visible
25 Oct 5.9 21:54:17 12° WNW 21:54:17 12° WNW 21:55:05 10° NW visible
26 Oct 4.0 19:37:05 29° NE 19:37:05 29° NE 19:40:24 10° N visible
26 Oct 5.1 21:17:18 22° NW 21:17:18 22° NW 21:19:30 10° NNW visible
27 Oct 4.5 19:00:05 17° NE 19:00:05 17° NE 19:02:46 10° NNE visible
27 Oct 4.3 20:40:18 33° NNW 20:40:18 33° NNW 20:43:07 10° NNW visible
28 Oct 4.0 20:03:18 34° NNE 20:03:18 34° NNE 20:06:18 10° N visible
28 Oct 5.8 21:43:31 14° NW 21:43:31 14° NW 21:44:27 10° NW visible
29 Oct 4.3 19:26:19 23° NE 19:26:19 23° NE 19:29:06 10° N visible
29 Oct 5.1 21:06:31 22° NW 21:06:31 22° NW 21:08:32 10° NNW visible
30 Oct 4.8 18:49:19 14° NE 18:49:19 14° NE 18:51:09 10° NNE visible
30 Oct 4.4 20:29:31 30° NNW 20:29:31 30° NNW 20:32:01 10° NNW visible
